Weather History for KTPA - February, 2014

Change the Weather History Date:

Sunday, February 2, 2014

  Actual Average Record
Temperature  
Mean Temperature 71 °F 62 °F  
Max Temperature 80 °F 71 °F 84 °F (1982)
Min Temperature 62 °F 53 °F 30 °F (1980)
Degree Days  
Heating Degree Days 0 5  
Month to date heating degree days 0 10  
Since 1 July heating degree days 318 375  
Cooling Degree Days 6 2  
Month to date cooling degree days 9 4  
Year to date cooling degree days 30 54  
Growing Degree Days 21 (Base 50)    
Moisture  
Dew Point 64 °F    
Average Humidity 79    
Maximum Humidity 100    
Minimum Humidity 58    
Precipitation  
Precipitation 0.00 in 0.11 in 2.34 in (1998)
Month to date precipitation T 0.21  
Year to date precipitation 3.14 2.44  
Sea Level Pressure  
Sea Level Pressure 30.12 in    
Wind  
Wind Speed 3 mph (WSW)    
Max Wind Speed 9 mph    
Max Gust Speed 15 mph    
Visibility 5 miles    
Events Fog    
T = Trace of Precipitation, MM = Missing Value Source: NWS Daily Summary

Daily Weather History Graph

Daily Weather History Graph

Search for Another Location

Airport or City:

Trip Planner

Search our weather history database for the weather conditions in past years. The results will help you decide how hot, cold, wet, or windy it might be!

Date:

Astronomy

Feb. 02, 2014 Rise Set
Actual Time 7:16 AM EST 6:11 PM EST
Civil Twilight 6:52 AM EST 6:35 PM EST
Nautical Twilight 6:24 AM EST 7:03 PM EST
Astronomical Twilight 5:56 AM EST 7:31 PM EST
Moon 9:02 AM EST (2/2) 9:30 PM EST (2/2)
Length of Visible Light 11h 43m
Length of Day
10h 54m
Waxing Crescent, 11% of the Moon is Illuminated
Feb 2
Waxing Crescent
Feb 6
First Quarter
Feb 14
Full
Feb 22
Last Quarter
Mar 1
New

Hourly Weather History & Observations

Time (EST) Temp. Heat Index Dew Point Humidity Pressure Visibility Wind Dir Wind Speed Gust Speed Precip Events Conditions
12:49 AM 62.6 °F - 62.6 °F 100% 30.13 in 0.5 mi NNE 3.5 mph - N/A   Scattered Clouds
12:53 AM 62.1 °F - 61.0 °F 96% 30.13 in 0.5 mi Calm Calm - N/A   Mostly Cloudy
1:53 AM 63.0 °F - 62.1 °F 97% 30.13 in 0.2 mi NE 4.6 mph - N/A Fog Fog
2:01 AM 63.0 °F - 63.0 °F 100% 30.13 in 0.2 mi Calm Calm - N/A Fog Fog
2:53 AM 63.0 °F - 63.0 °F 100% 30.12 in 0.2 mi Calm Calm - N/A Fog Fog
3:10 AM 63.0 °F - 63.0 °F 100% 30.12 in 0.2 mi North 3.5 mph - N/A Fog Fog
3:53 AM 63.0 °F - 63.0 °F 100% 30.12 in 0.2 mi Calm Calm - N/A Fog Fog
4:04 AM 63.0 °F - 63.0 °F 100% 30.12 in 0.2 mi ENE 3.5 mph - N/A Fog Fog
4:39 AM 63.0 °F - 63.0 °F 100% 30.11 in 0.2 mi Calm Calm - N/A Fog Fog
4:53 AM 63.0 °F - 63.0 °F 100% 30.11 in 0.2 mi Calm Calm - N/A Fog Fog
5:26 AM 63.0 °F - 62.1 °F 97% 30.10 in 0.2 mi Calm Calm - N/A   Mostly Cloudy
5:33 AM 63.0 °F - 62.1 °F 97% 30.11 in 2.5 mi Calm Calm - N/A   Mostly Cloudy
5:53 AM 63.0 °F - 63.0 °F 100% 30.12 in 5.0 mi Calm Calm - N/A   Overcast
6:27 AM 63.0 °F - 62.1 °F 97% 30.12 in 0.5 mi Calm Calm - N/A   Scattered Clouds
6:33 AM 63.0 °F - 62.1 °F 97% 30.12 in 0.5 mi Calm Calm - N/A   Mostly Cloudy
6:48 AM 62.6 °F - 62.6 °F 100% 30.12 in 0.1 mi Calm Calm - N/A Fog Fog
6:53 AM 63.0 °F - 62.1 °F 97% 30.13 in 0.1 mi Calm Calm - N/A Fog Fog
7:43 AM 63.0 °F - 63.0 °F 100% 30.14 in 0.0 mi Calm Calm - N/A Fog Fog
7:53 AM 63.0 °F - 63.0 °F 100% 30.14 in 0.0 mi Calm Calm - N/A Fog Fog
8:11 AM 63.0 °F - 63.0 °F 100% 30.14 in 0.1 mi Calm Calm - N/A Fog Fog
8:28 AM 63.0 °F - 63.0 °F 100% 30.15 in 0.1 mi Calm Calm - N/A Fog Fog
8:41 AM 64.9 °F - 64.0 °F 97% 30.16 in 0.2 mi Calm Calm - N/A Fog Fog
8:49 AM 64.4 °F - 64.4 °F 100% 30.16 in 0.5 mi Calm Calm - N/A   Scattered Clouds
8:53 AM 64.9 °F - 64.9 °F 100% 30.16 in 0.5 mi Calm Calm - N/A   Scattered Clouds
9:01 AM 66.0 °F - 64.9 °F 96% 30.16 in 3.0 mi Calm Calm - N/A   Scattered Clouds
9:35 AM 70.0 °F - 66.9 °F 90% 30.17 in 10.0 mi Calm Calm - N/A   Partly Cloudy
9:40 AM 71.1 °F - 66.9 °F 87% 30.17 in 10.0 mi SE 3.5 mph - N/A   Mostly Cloudy
9:49 AM 71.6 °F - 68.0 °F 88% 30.17 in 10.0 mi ESE 4.6 mph - N/A   Scattered Clouds
9:53 AM 72.0 °F - 68.0 °F 87% 30.17 in 10.0 mi SE 5.8 mph - N/A   Partly Cloudy
10:53 AM 73.0 °F - 68.0 °F 84% 30.17 in 10.0 mi SW 5.8 mph - N/A   Partly Cloudy
11:53 AM 75.9 °F - 68.0 °F 76% 30.15 in 10.0 mi SW 5.8 mph - N/A   Partly Cloudy
12:53 PM 77.0 °F - 68.0 °F 74% 30.12 in 10.0 mi West 5.8 mph - N/A   Scattered Clouds
1:53 PM 79.0 °F - 68.0 °F 69% 30.09 in 10.0 mi WSW 6.9 mph - N/A   Scattered Clouds
2:53 PM 80.1 °F 82.1 °F 66.0 °F 62% 30.06 in 10.0 mi West 6.9 mph - N/A   Partly Cloudy
3:53 PM 80.1 °F 81.9 °F 64.9 °F 60% 30.06 in 10.0 mi WSW 5.8 mph - N/A   Partly Cloudy
4:53 PM 78.1 °F - 66.0 °F 66% 30.06 in 10.0 mi WSW 6.9 mph - N/A   Partly Cloudy
5:53 PM 72.0 °F - 64.0 °F 76% 30.06 in 10.0 mi WSW 6.9 mph - N/A   Partly Cloudy
6:53 PM 69.1 °F - 64.0 °F 84% 30.07 in 10.0 mi WSW 3.5 mph - N/A   Clear
7:53 PM 71.1 °F - 64.9 °F 81% 30.08 in 10.0 mi Calm Calm - N/A   Clear
8:53 PM 70.0 °F - 64.9 °F 84% 30.09 in 10.0 mi Calm Calm - N/A   Clear
9:53 PM 68.0 °F - 64.9 °F 90% 30.09 in 10.0 mi Calm Calm - N/A   Clear
10:53 PM 69.1 °F - 64.0 °F 84% 30.09 in 10.0 mi Calm Calm - N/A   Clear
11:53 PM 68.0 °F - 64.9 °F 90% 30.09 in 10.0 mi Calm Calm - N/A   Mostly Cloudy